EN

Hourly Weather Abengourou

Today, 4 December, Friday

Time Temperature Precipitation Wind Pressure Humidity
00:00 +22°C° 0 mm 0 mps 742 mmHg 95%
01:00 +22°C° 0 mm 0 mps 741 mmHg 96%
02:00 +21°C° 0 mm 0 mps 741 mmHg 97%
03:00 +21°C° 0 mm 0 mps 740 mmHg 98%
04:00 +21°C° 0 mm 0 mps 741 mmHg 98%
05:00 +21°C° 0 mm 0 mps 741 mmHg 98%
06:00 +21°C° 0 mm 0 mps 741 mmHg 99%
07:00 +23°C° 0 mm 0 mps 742 mmHg 89%
08:00 +27°C° 0 mm 1 mps 743 mmHg 80%
09:00 +29°C° 0 mm 1 mps 743 mmHg 70%
10:00 +32°C° 0 mm 1 mps 743 mmHg 60%
11:00 +33°C° 0 mm 0 mps 743 mmHg 50%
12:00 +35°C° 0 mm 0 mps 742 mmHg 40%
13:00 +35°C° 0 mm 0 mps 742 mmHg 36%
14:00 +35°C° 0 mm 0 mps 741 mmHg 32%
15:00 +37°C° 0 mm 1 mps 740 mmHg 29%
16:00 +34°C° 0 mm 1 mps 740 mmHg 37%
17:00 +30°C° 0 mm 0 mps 740 mmHg 45%
18:00 +27°C° 0 mm 0 mps 740 mmHg 54%
19:00 +28°C° 0 mm 1 mps 741 mmHg 63%
20:00 +27°C° 0 mm 1 mps 741 mmHg 73%
21:00 +26°C° 0 mm 1 mps 742 mmHg 83%
22:00 +25°C° 0 mm 1 mps 741 mmHg 87%
23:00 +25°C° 0 mm 1 mps 741 mmHg 92%

Tomorrow, 5 December, Saturday

Time Temperature Precipitation Wind Pressure Humidity
00:00 +25°C° 0 mm 1 mps 741 mmHg 96%
01:00 +24°C° 0 mm 1 mps 741 mmHg 97%
02:00 +24°C° 0 mm 1 mps 740 mmHg 98%
03:00 +24°C° 0 mm 1 mps 740 mmHg 99%
04:00 +24°C° 0 mm 1 mps 740 mmHg 98%
05:00 +24°C° 0 mm 1 mps 741 mmHg 97%
06:00 +24°C° 0 mm 1 mps 741 mmHg 97%
07:00 +25°C° 0 mm 1 mps 742 mmHg 93%
08:00 +26°C° 0 mm 1 mps 742 mmHg 89%
09:00 +27°C° 0 mm 1 mps 743 mmHg 85%
10:00 +28°C° 0 mm 1 mps 742 mmHg 80%
11:00 +28°C° 0 mm 1 mps 742 mmHg 76%
12:00 +29°C° 0 mm 1 mps 742 mmHg 71%
13:00 +30°C° 0 mm 1 mps 741 mmHg 66%
14:00 +32°C° 0 mm 1 mps 741 mmHg 60%
15:00 +33°C° 0 mm 1 mps 740 mmHg 55%
16:00 +31°C° 0 mm 1 mps 740 mmHg 62%
17:00 +27°C° 0 mm 0 mps 740 mmHg 69%
18:00 +26°C° 0 mm 0 mps 740 mmHg 76%
19:00 +25°C° 0 mm 0 mps 740 mmHg 79%
20:00 +26°C° 0 mm 1 mps 741 mmHg 82%
21:00 +25°C° 0 mm 1 mps 742 mmHg 86%
22:00 +25°C° 0 mm 1 mps 741 mmHg 89%
23:00 +25°C° 0 mm 1 mps 741 mmHg 91%

Day after tomorrow, 6 December, Sunday

Time Temperature Precipitation Wind Pressure Humidity
00:00 +24°C° 0 mm 1 mps 741 mmHg 94%
01:00 +24°C° 0 mm 1 mps 740 mmHg 96%
02:00 +23°C° 0 mm 1 mps 740 mmHg 97%
03:00 +21°C° 0 mm 0 mps 740 mmHg 99%
04:00 +21°C° 0 mm 0 mps 740 mmHg 99%
05:00 +21°C° 0 mm 0 mps 740 mmHg 99%
06:00 +21°C° 0 mm 0 mps 741 mmHg 99%
07:00 +25°C° 0 mm 1 mps 741 mmHg 91%
08:00 +27°C° 0 mm 1 mps 742 mmHg 83%
09:00 +28°C° 0 mm 2 mps 742 mmHg 75%
10:00 +30°C° 0 mm 2 mps 742 mmHg 68%
11:00 +32°C° 0 mm 2 mps 741 mmHg 62%
12:00 +34°C° 0 mm 2 mps 741 mmHg 55%
13:00 +34°C° 0.1 mm 2 mps 740 mmHg 55%
14:00 +34°C° 0.1 mm 2 mps 740 mmHg 54%
15:00 +34°C° 0.1 mm 2 mps 739 mmHg 54%
16:00 +31°C° 0.2 mm 1 mps 739 mmHg 64%
17:00 +29°C° 0.2 mm 1 mps 739 mmHg 74%
18:00 +27°C° 0.2 mm 1 mps 740 mmHg 84%
19:00 +26°C° 0.3 mm 1 mps 740 mmHg 87%
20:00 +26°C° 0.3 mm 1 mps 741 mmHg 91%
21:00 +25°C° 0.3 mm 1 mps 741 mmHg 94%
22:00 +25°C° 0 mm 1 mps 741 mmHg 95%
23:00 +24°C° 0 mm 1 mps 741 mmHg 96%

7 December, Monday

Time Temperature Precipitation Wind Pressure Humidity
00:00 +24°C° 0 mm 1 mps 741 mmHg 97%
01:00 +24°C° 0 mm 1 mps 741 mmHg 97%
02:00 +24°C° 0 mm 1 mps 741 mmHg 98%
03:00 +23°C° 0 mm 1 mps 741 mmHg 99%
04:00 +23°C° 0 mm 1 mps 741 mmHg 99%
05:00 +21°C° 0 mm 0 mps 741 mmHg 99%
06:00 +21°C° 0 mm 0 mps 741 mmHg 99%
07:00 +25°C° 0 mm 1 mps 742 mmHg 93%
08:00 +26°C° 0 mm 1 mps 742 mmHg 87%
09:00 +28°C° 0 mm 1 mps 743 mmHg 80%
10:00 +29°C° 0 mm 1 mps 742 mmHg 75%
11:00 +30°C° 0 mm 1 mps 742 mmHg 69%
12:00 +32°C° 0 mm 1 mps 742 mmHg 63%
13:00 +31°C° 0.2 mm 1 mps 741 mmHg 65%
14:00 +31°C° 0.2 mm 1 mps 740 mmHg 67%
15:00 +31°C° 0.2 mm 1 mps 740 mmHg 70%
16:00 +29°C° 0.5 mm 1 mps 740 mmHg 76%
17:00 +28°C° 0.5 mm 1 mps 740 mmHg 82%
18:00 +27°C° 0.5 mm 1 mps 741 mmHg 88%
19:00 +26°C° 0.5 mm 1 mps 741 mmHg 91%
20:00 +25°C° 0.5 mm 1 mps 742 mmHg 93%
21:00 +25°C° 0.5 mm 1 mps 742 mmHg 96%
22:00 +24°C° 0 mm 1 mps 742 mmHg 97%
23:00 +24°C° 0 mm 1 mps 742 mmHg 98%

8 December, Tuesday

Time Temperature Precipitation Wind Pressure Humidity
00:00 +24°C° 0 mm 1 mps 742 mmHg 98%
01:00 +24°C° 0 mm 1 mps 741 mmHg 99%
02:00 +24°C° 0 mm 1 mps 741 mmHg 99%
03:00 +22°C° 0 mm 0 mps 741 mmHg 99%
04:00 +21°C° 0 mm 0 mps 741 mmHg 99%
05:00 +21°C° 0 mm 0 mps 741 mmHg 99%
06:00 +21°C° 0 mm 0 mps 741 mmHg 99%
07:00 +25°C° 0 mm 1 mps 742 mmHg 95%
08:00 +26°C° 0 mm 1 mps 742 mmHg 91%
09:00 +27°C° 0 mm 1 mps 743 mmHg 87%
10:00 +28°C° 0 mm 1 mps 743 mmHg 80%
11:00 +29°C° 0 mm 1 mps 743 mmHg 74%
12:00 +28°C° 0 mm 0 mps 742 mmHg 68%
13:00 +31°C° 0 mm 1 mps 742 mmHg 64%
14:00 +32°C° 0 mm 1 mps 741 mmHg 61%
15:00 +33°C° 0 mm 1 mps 741 mmHg 58%
16:00 +31°C° 0.7 mm 1 mps 741 mmHg 68%
17:00 +29°C° 0.7 mm 1 mps 741 mmHg 79%
18:00 +26°C° 0.7 mm 1 mps 741 mmHg 89%
19:00 +26°C° 0.4 mm 1 mps 741 mmHg 91%
20:00 +25°C° 0.4 mm 1 mps 742 mmHg 93%
21:00 +25°C° 0.4 mm 1 mps 742 mmHg 96%
22:00 +25°C° 0 mm 1 mps 742 mmHg 96%
23:00 +25°C° 0 mm 1 mps 742 mmHg 97%

9 December, Wednesday

Time Temperature Precipitation Wind Pressure Humidity
00:00 +24°C° 0 mm 1 mps 742 mmHg 97%
01:00 +24°C° 0 mm 1 mps 741 mmHg 98%
02:00 +24°C° 0 mm 1 mps 741 mmHg 98%
03:00 +24°C° 0 mm 1 mps 741 mmHg 99%
04:00 +24°C° 0 mm 1 mps 741 mmHg 99%
05:00 +24°C° 0 mm 1 mps 741 mmHg 99%
06:00 +24°C° 0 mm 1 mps 741 mmHg 98%
07:00 +25°C° 0 mm 1 mps 742 mmHg 96%
08:00 +26°C° 0 mm 1 mps 742 mmHg 93%
09:00 +26°C° 0 mm 1 mps 743 mmHg 90%
10:00 +28°C° 0.1 mm 1 mps 743 mmHg 81%
11:00 +30°C° 0.1 mm 1 mps 742 mmHg 73%
12:00 +31°C° 0.1 mm 1 mps 742 mmHg 64%
13:00 +31°C° 0.1 mm 1 mps 741 mmHg 63%
14:00 +32°C° 0.1 mm 1 mps 741 mmHg 62%
15:00 +30°C° 0.1 mm 0 mps 740 mmHg 62%
16:00 +30°C° 1 mm 1 mps 740 mmHg 72%
17:00 +28°C° 1 mm 1 mps 741 mmHg 82%
18:00 +26°C° 1 mm 1 mps 741 mmHg 92%
19:00 +26°C° 0.2 mm 1 mps 741 mmHg 93%
20:00 +25°C° 0.2 mm 1 mps 742 mmHg 94%
21:00 +25°C° 0.2 mm 1 mps 743 mmHg 96%
22:00 +24°C° 0 mm 1 mps 742 mmHg 96%
23:00 +24°C° 0 mm 1 mps 742 mmHg 97%
Show more